Weather History for Fes-Sais, Morocco

Change the Weather History Date:

Tuesday, May 21, 2013

  Actual Average Record
Temperature  
Mean Temperature 53 °F -  
Max Temperature 60 °F 83 °F 96 °F (2003)
Min Temperature 46 °F 56 °F 42 °F (1999)
Degree Days  
Heating Degree Days 12    
Growing Degree Days 3 (Base 50)    
Moisture  
Dew Point 43 °F    
Average Humidity 70    
Maximum Humidity 82    
Minimum Humidity 49    
Precipitation  
Precipitation 0.24 in 0.04 in - ()
Sea Level Pressure  
Sea Level Pressure 30.10 in    
Wind  
Wind Speed 9 mph ()    
Max Wind Speed 21 mph    
Max Gust Speed -    
Visibility 5.1 miles    
Events Rain    
Averages and records for this station are not official NWS values.
T = Trace of Precipitation, MM = Missing Value Source: Averaged Metar Reports

Daily Weather History Graph

Daily Weather History Graph

Search for Another Location

Airport:

Trip Planner

Search our weather history database for the weather conditions in past years. The results will help you decide how hot, cold, wet, or windy it might be!

Date:

Astronomy

May. 21, 2013 Rise Set
Actual Time 6:14 AM WEST 8:18 PM WEST
Civil Twilight 5:46 AM WEST 8:46 PM WEST
Nautical Twilight 5:12 AM WEST 9:20 PM WEST
Astronomical Twilight 4:35 AM WEST 9:57 PM WEST
Moon 4:26 PM WEST (5/21) 3:23 AM WEST (5/21)
Length of Visible Light 15h 00m
Length of Day
14h 04m
Waxing Gibbous, 82% of the Moon is Illuminated
May 21
Waxing Gibbous
May 25
Full
May 31
Last Quarter
Jun 8
New
Jun 16
First Quarter

Hourly Weather History & Observations

Time (WEST) Temp. Windchill Dew Point Humidity Pressure Visibility Wind Dir Wind Speed Gust Speed Precip Events Conditions
12:00 AM 51.8 °F - 44.6 °F 76% 30.04 in 1.9 mi WNW 5.8 mph - N/A Rain Rain
1:00 AM 52 °F - 46 °F 71% 30.06 in 3 mi WNW 6.9 mph - - Rain Light Rain
1:00 AM 51.8 °F - 46.4 °F 82% 30.04 in 3.1 mi NNW 5.8 mph - N/A   Mostly Cloudy
4:00 AM 46 °F - 40 °F 72% 30.07 in 6 mi SSW 4.6 mph - - Rain Light Rain
4:00 AM 46.4 °F 45.2 °F 39.2 °F 76% 30.01 in 6.2 mi SSW 3.5 mph - N/A   Mostly Cloudy
5:00 AM 48.2 °F - 41.0 °F 76% 30.04 in 6.2 mi WSW 6.9 mph - N/A   Mostly Cloudy
6:00 AM 48.2 °F - 41.0 °F 76% 30.04 in 6.2 mi SW 11.5 mph - N/A   Mostly Cloudy
7:00 AM 48 °F - 40 °F 66% 30.09 in 4 mi West 11.5 mph - -   Overcast
7:00 AM 48.2 °F - 41.0 °F 76% 30.04 in 3.7 mi West 11.5 mph - N/A   Partly Cloudy
8:00 AM 46.4 °F 41.5 °F 39.2 °F 76% 30.06 in 1.2 mi WSW 10.4 mph - N/A Rain Rain
9:00 AM 46.4 °F 41.1 °F 39.2 °F 76% 30.06 in 6.2 mi SSW 11.5 mph - N/A   Partly Cloudy
10:00 AM 51 °F - 42 °F 63% 30.11 in 6 mi WSW 13.8 mph - -   Mostly Cloudy
10:00 AM 51.8 °F - 42.8 °F 71% 30.09 in 6.2 mi WSW 13.8 mph - N/A   Partly Cloudy
11:00 AM 51.8 °F - 42.8 °F 71% 30.09 in 5.0 mi WSW 17.3 mph - N/A   Partly Cloudy
12:00 PM 51.8 °F - 42.8 °F 71% 30.09 in 5.0 mi West 19.6 mph - N/A   Partly Cloudy
1:00 PM 53 °F - 42 °F 58% 30.12 in 5 mi West 20.7 mph - - Rain Light Rain
1:00 PM 53.6 °F - 42.8 °F 67% 30.09 in 5.0 mi West 20.7 mph - N/A   Partly Cloudy
2:00 PM 53.6 °F - 46.4 °F 77% 30.09 in 5.0 mi West 15.0 mph - N/A Rain Rain
3:00 PM 51.8 °F - 44.6 °F 76% 30.12 in 5.0 mi West 13.8 mph - N/A Rain Light Rain
4:00 PM 53 °F - 44 °F 62% 30.13 in 5 mi West 11.5 mph - - Rain Light Rain
4:00 PM 53.6 °F - 44.6 °F 72% 30.12 in 6.2 mi West 12.7 mph - N/A   Partly Cloudy
5:00 PM 55.4 °F - 41.0 °F 58% 30.12 in 6.2 mi WSW 10.4 mph - N/A   Mostly Cloudy
6:00 PM 60.8 °F - 46.4 °F 59% 30.12 in - WNW 8.1 mph - N/A   Mostly Cloudy
7:00 PM 55 °F - 41 °F 49% 30.14 in 5 mi NW 4.6 mph - -   Mostly Cloudy
7:00 PM 55.4 °F - 42.8 °F 63% 30.12 in 6.2 mi NW 4.6 mph - N/A   Mostly Cloudy
8:00 PM 55.4 °F - 41.0 °F 58% 30.15 in 6.2 mi NNW 5.8 mph - N/A   Mostly Cloudy
9:00 PM 53.6 °F - 46.4 °F 77% 30.15 in 6.2 mi Variable 2.3 mph - N/A   Mostly Cloudy
10:00 PM 52 °F - 46 °F 73% 30.20 in 6 mi SSE 15.0 mph - -   Mostly Cloudy
10:00 PM 51.8 °F - 46.4 °F 82% 30.18 in 6.2 mi SSE 13.8 mph - N/A   Mostly Cloudy
11:00 PM 46.4 °F 43.5 °F 39.2 °F 76% 30.18 in 6.2 mi South 5.8 mph - N/A   Mostly Cloudy